User: anonymous   Login
Location: ????????
(55.5667°N, 37.5833°E)
Time: 23:44:19
(UTC+00:00)
Language:

Cosmos 1626 Rocket - Orbit

View from above orbital plane
View from above orbital plane
View from above satellite
View from above satellite

Ground track
Ground track

The orbit is defined by the following mean orbital elements,

1 15495U          26159.48382257 +.00000000 +00000-0 +41141-4 0 00004
2 15495  82.5231 353.4811 0017959 306.8319  53.1250 14.86190913    01
Epoch (UTC): 08 June 2026 11:36:42
Eccentricity: 0.0017959
inclination: 82.5231°
perigee height: 597 km
apogee height: 622 km
right ascension of ascending node: 353.4811°
argument of perigee: 306.8319°
revolutions per day: 14.86190913
mean anomaly at epoch: 53.1250°

The dashed part of the orbit path shows where the satellite is in the earth's shadow,  

DLR